Regional Weather Roundup
Issued by NWS Sioux Falls, SD

Home | Current Version | Previous Version | Graphics & Text | Print | Product List | Glossary Off
Versions: 1 2 3 4 5 6 7 8 9 10 11 12 13 14 15 16 17 18 19 20 21 22 23 24 25 26 27 28 29 30 31 32 33 34 35 36 37 38 39 40 41 42 43 44 45 46 47 48 49 50

000
ASUS43 KFSD 231310
RWRFSD

WEATHER ROUNDUP FOR SE SOUTH DAKOTA/SW MINNESOTA/NW IOWA
NATIONAL WEATHER SERVICE SIOUX FALLS SD
800 AM CDT SAT MAY 23 2015

NOTE: "FAIR" INDICATES FEW OR NO CLOUDS BELOW 12,000 FEET WITH NO
SIGNIFICANT WEATHER AND OR OBSTRUCTIONS TO VISIBILITY.


SDZ038>040-050-052>070-231400-
SOUTHEAST SOUTH DAKOTA

CITY           SKY/WX    TMP DP  RH WIND       PRES   REMARKS
BROOKINGS      CLOUDY    54  46  76 SE8       30.22F
CHAMBERLAIN    LGT RAIN  50  50  99 SE9       30.14S
HURON          CLOUDY    55  47  74 SE7       30.17S
MADISON        FAIR      54  54 100 SE5       30.21S
MITCHELL       CLOUDY    54  50  86 SE10      30.18S
SIOUX FALLS    CLOUDY    54  50  86 E6        30.20F
WINNER         CLOUDY    52  49  89 E9        30.12S FOG
YANKTON        CLOUDY    55  48  76 E7        30.18R
$$

MNZ071-072-080-081-089-090-097-098-231400-
SOUTHWEST MINNESOTA

CITY           SKY/WX    TMP DP  RH WIND       PRES   REMARKS
FAIRMONT       CLOUDY    55  46  71 SE6       30.25R
JACKSON        CLOUDY    55  52  88 SE7       30.25S
LUVERNE        DRIZZLE   55  50  82 E5        30.22F
MARSHALL       CLOUDY    55  46  71 E5        30.23S
MONTEVIDEO     DRIZZLE   55  48  76 S3        30.26S
REDWOOD FALLS  CLOUDY    53  49  86 CALM      30.24F
TRACY          DRIZZLE   56  50  82 CALM      30.24S
WINDOM         LGT RAIN  57  48  72 CALM      30.25R
WORTHINGTON    CLOUDY    55  46  71 SE6       30.24S
$$

IAZ001>003-012>014-020>022-031-032-NEZ013-014-SDZ071-231400-
NORTHWEST IOWA

CITY           SKY/WX    TMP DP  RH WIND       PRES   REMARKS
CHEROKEE       CLOUDY    58  51  76 SE7       30.23S
DENISON        CLOUDY    57  54  88 SE7       30.21S
ESTHERVILLE    CLOUDY    55  48  77 SE8       30.25R
LE MARS        CLOUDY    59  52  77 SE7       30.22S
ORANGE CITY    CLOUDY    55  50  82 SE3       30.22S
SHELDON        CLOUDY    57  34  41 SE7       30.22R
SIOUX CITY     CLOUDY    58  50  75 SE7       30.21R
SPENCER        CLOUDY    58  50  75 SE9       30.24S
STORM LAKE     CLOUDY    57  50  77 SE8       30.25R
$$

ABBREVIATIONS USED IN REMARKS
   TC - TEMPERATURE IN CELSIUS
  WCI - WIND CHILL INDEX
   HX - HEAT INDEX
  VSB - VISIBILITY




USA.gov is the U.S. government's official web portal to all federal, state and local government web resources and services.